Miscellaneous Local Product
Issued by NWS Hastings, NE

Home | Current Version | Previous Version | Graphics & Text | Print | Product List | Glossary On
Versions: 1 2 3 4 5 6 7 8 9 10 11 12 13 14 15 16 17 18 19 20 21 22 23 24 25 26 27 28 29 30 31 32 33 34 35 36 37 38 39 40 41 42 43 44 45 46 47 48 49 50
000
AXUS43 KGID 272002
MISGRI

GID CWA HOURLY WEATHER ROUNDUP
NATIONAL WEATHER SERVICE HASTINGS NE
200 PM CST MON FEB 27 2017

NOTE: "FAIR" INDICATES FEW OR NO CLOUDS BELOW 12,000 FEET WITH NO
SIGNIFICANT WEATHER AND/OR OBSTRUCTIONS TO VISIBILITY.

...SOUTH CENTRAL NEBRASKA...

CITY           SKY/WX    TMP DP  RH WIND       PRES   REMARKS
GRAND ISLAND   SUNNY     51  32  48 S20G28    29.76F
HASTINGS       MOSUNNY   53  33  46 S17G26    29.75F
KEARNEY        MOSUNNY   54  30  40 S22G28    29.73F
ORD            SUNNY     48  28  46 S13G24    29.72F
YORK           CLOUDY    52  32  46 S18G26    29.78F
AURORA         MOSUNNY   52  32  45 S20G28    29.77F
LEXINGTON      SUNNY     50  31  48 S18G24    29.69F
HOLDREGE       SUNNY     51  30  43 S18G26    29.71F
HEBRON         CLOUDY    56  37  48 S17       29.76F

...NEBRASKA PANHANDLE...

CITY           SKY/WX    TMP DP  RH WIND       PRES   REMARKS
CHADRON        CLOUDY    36  18  48 CALM      29.59F
ALLIANCE       CLOUDY    33  23  66 CALM      29.59F
SCOTTSBLUFF    PTSUNNY   36  18  48 E6        29.59F WCI  31
SIDNEY         SUNNY     50  17  27 S22       29.59F

...WESTERN AND NORTH CENTRAL NEBRASKA...

CITY           SKY/WX    TMP DP  RH WIND       PRES   REMARKS
VALENTINE      SUNNY     39  27  62 SW10      29.67F WCI  32
AINSWORTH      SUNNY     41  31  67 S17G23    29.67F
ONEILL         CLOUDY    43  28  56 S16       29.72F
BROKEN BOW     SUNNY     46  31  55 S20       29.69F
IMPERIAL       SUNNY     49  23  36 S12       29.64F
NORTH PLATTE   SUNNY     49  28  44 S17       29.67F
MCCOOK         SUNNY     50  28  42 SE8       29.68F

...EASTERN NEBRASKA...

CITY           SKY/WX    TMP DP  RH WIND       PRES   REMARKS
NORFOLK        SUNNY     46  26  45 S17       29.79F
SO SIOUX CITY  SUNNY     42  29  59 SE9       29.85F
TEKAMAH        MOSUNNY   47  35  63 SE12      29.86F
COLUMBUS       MOSUNNY   50  30  46 SE16      29.80F
ALBION         MOSUNNY   48  26  42 S17       29.77F
OMAHA EPPLEY   PTSUNNY   53  27  36 SE17      29.86F
OFFUTT AFB     PTSUNNY   53  28  37 S12       29.85F
MILLARD        MOSUNNY   54  30  40 SE18      29.85F
LINCOLN        CLOUDY    56  25  30 S23G30    29.81F
NEBRASKA CITY  MOSUNNY   55  14  19 S22       29.86F
BEATRICE       CLOUDY    56  34  43 SE18G25   29.80F
FALLS CITY     CLOUDY    55  30  38 S13G23    29.86F

...NORTHERN KANSAS...

CITY           SKY/WX    TMP DP  RH WIND       PRES   REMARKS
GOODLAND       SUNNY     59   9  13 SW18      29.63F
HILL CITY      SUNNY     57  26  30 SW10      29.70F
NORTON         CLEAR     54  23  30 SE5       29.68F
PHILLIPSBURG   SUNNY     59  30  33 SE12G25   29.71F
SMITH CENTER   MOSUNNY   57  36  44 S20G25    29.72F
HAYS           SUNNY     61  28  28 SW15G21   29.71F
RUSSELL        SUNNY     60  36  40 S20G28    29.70F
CONCORDIA      MOSUNNY   57  41  55 SE29G36   29.74F
SALINA         PTSUNNY   60  46  59 S17G29    29.77F
TOPEKA         CLOUDY    61  39  44 SE18G25   29.85F



USA.gov is the U.S. government's official web portal to all federal, state and local government web resources and services.